When you browse on this site, cookies collect data to enhance your experience and personalize the content and advertising you see.
Visit our Privacy Policy to learn more. By continuing to use the site, you agree to this use of cookies and data.
  • Em Portugal
  • Lista de países
  • Para 7 dias
  • Temperatura da água
  • Mapas de satélite
  • Mapa do tempo
  • Widgets de tempo
  • user-avatar
    Iniciar Sessão

    Previsão horária em Dhaka

    Hoje, 24 Julho, Quarta-feira

    Tempo Temperatura Precipitação Vento Pressão Humidade
    00:00 +30°C° 0 mm 2 m/s 751 mmHg 84%
    01:00 +30°C° 0.8 mm 2 m/s 750 mmHg 84%
    02:00 +30°C° 0.8 mm 2 m/s 750 mmHg 85%
    03:00 +29°C° 0.8 mm 2 m/s 750 mmHg 85%
    04:00 +29°C° 0.8 mm 2 m/s 750 mmHg 84%
    05:00 +29°C° 0.8 mm 2 m/s 750 mmHg 84%
    06:00 +30°C° 0 mm 2 m/s 750 mmHg 84%
    07:00 +31°C° 0.1 mm 3 m/s 750 mmHg 79%
    08:00 +33°C° 0.1 mm 3 m/s 751 mmHg 75%
    09:00 +34°C° 0.1 mm 4 m/s 751 mmHg 70%
    10:00 +34°C° 0.3 mm 4 m/s 751 mmHg 68%
    11:00 +34°C° 0.3 mm 4 m/s 750 mmHg 67%
    12:00 +35°C° 0.3 mm 4 m/s 750 mmHg 65%
    13:00 +35°C° 0.8 mm 4 m/s 750 mmHg 66%
    14:00 +35°C° 0.8 mm 4 m/s 749 mmHg 66%
    15:00 +35°C° 0.8 mm 4 m/s 749 mmHg 67%
    16:00 +34°C° 0.8 mm 4 m/s 749 mmHg 70%
    17:00 +33°C° 0.8 mm 4 m/s 749 mmHg 74%
    18:00 +32°C° 0.8 mm 4 m/s 749 mmHg 77%
    19:00 +32°C° 0 mm 4 m/s 749 mmHg 78%
    20:00 +32°C° 0 mm 4 m/s 750 mmHg 80%
    21:00 +30°C° 0 mm 4 m/s 751 mmHg 81%
    22:00 +30°C° 0.3 mm 4 m/s 751 mmHg 82%
    23:00 +30°C° 0.3 mm 4 m/s 751 mmHg 83%

    Amanhã, 25 Julho, Quinta-feira

    Tempo Temperatura Precipitação Vento Pressão Humidade
    00:00 +30°C° 0.3 mm 4 m/s 751 mmHg 83%
    01:00 +30°C° 0 mm 4 m/s 750 mmHg 84%
    02:00 +29°C° 0 mm 4 m/s 750 mmHg 85%
    03:00 +29°C° 0 mm 3 m/s 750 mmHg 85%
    04:00 +29°C° 0.1 mm 3 m/s 750 mmHg 86%
    05:00 +29°C° 0.1 mm 3 m/s 750 mmHg 86%
    06:00 +29°C° 0.1 mm 3 m/s 750 mmHg 87%
    07:00 +30°C° 0.4 mm 3 m/s 751 mmHg 81%
    08:00 +33°C° 0.4 mm 3 m/s 751 mmHg 74%
    09:00 +34°C° 0.4 mm 3 m/s 751 mmHg 68%
    10:00 +35°C° 1.2 mm 2 m/s 751 mmHg 65%
    11:00 +35°C° 1.2 mm 2 m/s 751 mmHg 62%
    12:00 +36°C° 1.2 mm 2 m/s 750 mmHg 59%
    13:00 +36°C° 3.2 mm 2 m/s 750 mmHg 61%
    14:00 +36°C° 3.2 mm 2 m/s 749 mmHg 63%
    15:00 +36°C° 3.2 mm 3 m/s 749 mmHg 64%
    16:00 +34°C° 4 mm 2 m/s 748 mmHg 71%
    17:00 +32°C° 4 mm 2 m/s 748 mmHg 77%
    18:00 +31°C° 4 mm 2 m/s 748 mmHg 83%
    19:00 +31°C° 1.8 mm 1 m/s 749 mmHg 84%
    20:00 +30°C° 1.8 mm 1 m/s 749 mmHg 86%
    21:00 +30°C° 1.8 mm 1 m/s 750 mmHg 87%
    22:00 +30°C° 0.9 mm 1 m/s 750 mmHg 87%
    23:00 +30°C° 0.9 mm 2 m/s 750 mmHg 87%

    Depois de amanhã, 26 Julho, Sexta-feira

    Tempo Temperatura Precipitação Vento Pressão Humidade
    00:00 +29°C° 0.9 mm 2 m/s 750 mmHg 87%
    01:00 +29°C° 1.1 mm 1 m/s 749 mmHg 88%
    02:00 +29°C° 1.1 mm 1 m/s 749 mmHg 89%
    03:00 +29°C° 1.1 mm 1 m/s 749 mmHg 89%
    04:00 +29°C° 0.1 mm 1 m/s 749 mmHg 89%
    05:00 +29°C° 0.1 mm 1 m/s 749 mmHg 90%
    06:00 +29°C° 0.1 mm 2 m/s 749 mmHg 90%
    07:00 +30°C° 0.5 mm 2 m/s 749 mmHg 86%
    08:00 +30°C° 0.5 mm 3 m/s 749 mmHg 83%
    09:00 +32°C° 0.5 mm 4 m/s 750 mmHg 79%
    10:00 +33°C° 0.9 mm 4 m/s 749 mmHg 76%
    11:00 +33°C° 0.9 mm 4 m/s 749 mmHg 73%
    12:00 +34°C° 0.9 mm 4 m/s 749 mmHg 70%
    13:00 +34°C° 1.2 mm 4 m/s 748 mmHg 69%
    14:00 +35°C° 1.2 mm 4 m/s 747 mmHg 68%
    15:00 +35°C° 1.2 mm 5 m/s 747 mmHg 67%
    16:00 +34°C° 2.3 mm 4 m/s 747 mmHg 71%
    17:00 +33°C° 2.3 mm 4 m/s 747 mmHg 75%
    18:00 +32°C° 2.3 mm 4 m/s 747 mmHg 79%
    19:00 +32°C° 2 mm 4 m/s 747 mmHg 81%
    20:00 +30°C° 2 mm 4 m/s 748 mmHg 84%
    21:00 +29°C° 2 mm 4 m/s 748 mmHg 86%
    22:00 +29°C° 1.2 mm 4 m/s 748 mmHg 87%
    23:00 +29°C° 1.2 mm 4 m/s 749 mmHg 87%

    27 Julho, Sábado

    Tempo Temperatura Precipitação Vento Pressão Humidade
    00:00 +29°C° 1.2 mm 5 m/s 749 mmHg 87%
    01:00 +29°C° 0.9 mm 5 m/s 748 mmHg 88%
    02:00 +29°C° 0.9 mm 5 m/s 748 mmHg 88%
    03:00 +28°C° 0.9 mm 5 m/s 747 mmHg 88%
    04:00 +28°C° 1.1 mm 5 m/s 748 mmHg 88%
    05:00 +28°C° 1.1 mm 5 m/s 748 mmHg 88%
    06:00 +29°C° 1.1 mm 6 m/s 748 mmHg 88%
    07:00 +29°C° 1.2 mm 6 m/s 748 mmHg 86%
    08:00 +30°C° 1.2 mm 7 m/s 749 mmHg 83%
    09:00 +32°C° 1.2 mm 7 m/s 749 mmHg 80%
    10:00 +32°C° 0.7 mm 8 m/s 749 mmHg 78%
    11:00 +33°C° 0.7 mm 8 m/s 749 mmHg 75%
    12:00 +34°C° 0.7 mm 9 m/s 749 mmHg 73%
    13:00 +34°C° 0.8 mm 9 m/s 748 mmHg 72%
    14:00 +34°C° 0.8 mm 9 m/s 748 mmHg 71%
    15:00 +34°C° 0.8 mm 9 m/s 747 mmHg 70%
    16:00 +33°C° 0.4 mm 9 m/s 747 mmHg 73%
    17:00 +33°C° 0.4 mm 9 m/s 747 mmHg 75%
    18:00 +32°C° 0.4 mm 8 m/s 748 mmHg 77%
    19:00 +31°C° 0 mm 8 m/s 748 mmHg 79%
    20:00 +30°C° 0 mm 7 m/s 749 mmHg 80%
    21:00 +30°C° 0 mm 7 m/s 750 mmHg 82%
    22:00 +30°C° 0.1 mm 6 m/s 750 mmHg 82%
    23:00 +29°C° 0.1 mm 6 m/s 750 mmHg 83%

    28 Julho, Domingo

    Tempo Temperatura Precipitação Vento Pressão Humidade
    00:00 +29°C° 0.1 mm 6 m/s 750 mmHg 84%
    01:00 +29°C° 0.2 mm 7 m/s 749 mmHg 84%
    02:00 +29°C° 0.2 mm 7 m/s 749 mmHg 85%
    03:00 +29°C° 0.2 mm 7 m/s 749 mmHg 85%
    04:00 +29°C° 0.4 mm 7 m/s 749 mmHg 85%
    05:00 +29°C° 0.4 mm 7 m/s 750 mmHg 86%
    06:00 +29°C° 0.4 mm 7 m/s 750 mmHg 86%
    07:00 +30°C° 0.9 mm 7 m/s 750 mmHg 83%
    08:00 +32°C° 0.9 mm 7 m/s 751 mmHg 79%
    09:00 +32°C° 0.9 mm 8 m/s 751 mmHg 76%
    10:00 +33°C° 0.7 mm 8 m/s 751 mmHg 73%
    11:00 +34°C° 0.7 mm 8 m/s 751 mmHg 70%
    12:00 +35°C° 0.7 mm 8 m/s 750 mmHg 67%
    13:00 +35°C° 0.9 mm 8 m/s 750 mmHg 66%
    14:00 +35°C° 0.9 mm 8 m/s 749 mmHg 66%
    15:00 +35°C° 0.9 mm 7 m/s 749 mmHg 65%
    16:00 +34°C° 0.6 mm 7 m/s 749 mmHg 68%
    17:00 +33°C° 0.6 mm 7 m/s 749 mmHg 72%
    18:00 +32°C° 0.6 mm 6 m/s 749 mmHg 75%
    19:00 +32°C° 0 mm 6 m/s 750 mmHg 78%
    20:00 +30°C° 0 mm 5 m/s 751 mmHg 80%
    21:00 +30°C° 0 mm 5 m/s 752 mmHg 83%
    22:00 +29°C° 0 mm 4 m/s 752 mmHg 84%
    23:00 +29°C° 0 mm 4 m/s 752 mmHg 84%

    29 Julho, Segunda-feira

    Tempo Temperatura Precipitação Vento Pressão Humidade
    00:00 +29°C° 0 mm 4 m/s 752 mmHg 85%
    01:00 +29°C° 0.3 mm 3 m/s 752 mmHg 86%
    02:00 +29°C° 0.3 mm 3 m/s 751 mmHg 87%
    03:00 +28°C° 0.3 mm 3 m/s 751 mmHg 88%
    04:00 +28°C° 0 mm 3 m/s 751 mmHg 88%
    05:00 +28°C° 0 mm 3 m/s 751 mmHg 89%
    06:00 +28°C° 0 mm 4 m/s 751 mmHg 89%
    07:00 +30°C° 0.7 mm 4 m/s 751 mmHg 84%
    08:00 +32°C° 0.7 mm 4 m/s 752 mmHg 78%
    09:00 +33°C° 0.7 mm 4 m/s 752 mmHg 73%
    10:00 +34°C° 2.3 mm 4 m/s 752 mmHg 70%
    11:00 +35°C° 2.3 mm 5 m/s 751 mmHg 67%
    12:00 +35°C° 2.3 mm 5 m/s 751 mmHg 65%
    13:00 +35°C° 1.7 mm 5 m/s 750 mmHg 65%
    14:00 +35°C° 1.7 mm 6 m/s 749 mmHg 65%
    15:00 +35°C° 1.7 mm 6 m/s 749 mmHg 66%
    16:00 +35°C° 0.8 mm 6 m/s 749 mmHg 68%
    17:00 +34°C° 0.8 mm 5 m/s 749 mmHg 71%
    18:00 +33°C° 0.8 mm 5 m/s 749 mmHg 73%
    19:00 +33°C° 0 mm 4 m/s 750 mmHg 76%
    20:00 +32°C° 0 mm 4 m/s 750 mmHg 78%
    21:00 +30°C° 0 mm 4 m/s 751 mmHg 81%
    22:00 +30°C° 0 mm 4 m/s 751 mmHg 82%
    23:00 +30°C° 0 mm 3 m/s 751 mmHg 83%
    Mostrar mais